Volver al catálogo

DMSP 5D-2 F13 DEB

ActivoSSO
NORAD 42265·DEBRIS·🇺🇸 United States

Lanzado Mar 24, 1995 desde Vandenberg Space Force Base

Loading…

Próximos Pases (próximas 24 horas)

TLE

ActualizadoSource: Space-Track

Época: Sep 13, 2026, 08:58 UTC

1 42265U 95015GF  26256.37401749  .00002911  00000-0  94666-3 0  9992
2 42265  98.6727 296.4211 0005821 114.7162 245.4632 14.39554183561295

Sigue DMSP 5D-2 F13 DEB en tiempo real con AllMySat

Download on the App Store